Wellsville, NY

11:55 PM EDT on October 23, 2019 (GMT -0400)
Wellsville Municipal-Tarantine

Weather History for KELZ - August, 2019

Change the Weather History Date:

Thursday, August 1, 2019

  Actual Average (KDSV) Record (KDSV)
Temperature  
Mean Temperature 64 °F -  
Max Temperature 77 °F 82 °F 98 °F (1955)
Min Temperature 54 °F 58 °F 46 °F (1964)
Growing Degree Days 14 (Base 50)    
Moisture  
Dew Point 57 °F    
Average Humidity 86    
Maximum Humidity 100    
Minimum Humidity 43    
Precipitation  
Precipitation 0.00 in - - ()
Sea Level Pressure  
Sea Level Pressure 30.18 in    
Wind  
Wind Speed 2 mph ()    
Max Wind Speed 9 mph    
Max Gust Speed -    
Visibility 4.2 miles    
Events Fog    
Averages and records for this station are not official NWS values.
T = Trace of Precipitation, MM = Missing Value Source: Averaged Metar Reports

Daily Weather History Graph

Daily Weather History Graph

Search for Another Location

Airport or City:

Astronomy

Aug. 01, 2019 Rise Set
Actual Time 6:04 AM EDT 8:31 PM EDT
Civil Twilight 5:33 AM EDT 9:02 PM EDT
Nautical Twilight 4:53 AM EDT 9:41 PM EDT
Astronomical Twilight 4:09 AM EDT 10:25 PM EDT
Moon 6:26 AM EDT (8/1) 9:16 PM EDT (8/1)
Length of Visible Light 15h 29m
Length of Day
14h 26m
New Moon, 0% of the Moon is Illuminated
Aug 1
New Moon
Aug 7
First Quarter
Aug 15
Full
Aug 23
Last Quarter
Aug 30
New

Hourly Weather History & Observations

Time (EDT) Temp. Dew Point Humidity Pressure Visibility Wind Dir Wind Speed Gust Speed Precip Events Conditions
12:20 AM 62.1 °F 62.1 °F 100% 30.17 in 1.0 mi Calm Calm - N/A   Mist
12:22 AM 61.0 °F 61.0 °F 100% 30.17 in 2.5 mi Calm Calm - N/A   Partly Cloudy
12:29 AM 61.0 °F 61.0 °F 100% 30.17 in 3.0 mi Calm Calm - N/A   Clear
12:39 AM 61.0 °F 61.0 °F 100% 30.17 in 1.8 mi Calm Calm - N/A   Clear
12:51 AM 60.8 °F 60.8 °F 100% 30.17 in 0.5 mi North 3.5 mph - N/A Fog Fog
12:56 AM 60.1 °F 60.1 °F 100% 30.14 in 0.2 mi North 3.5 mph - N/A Fog Fog
1:31 AM 59.0 °F 59.0 °F 100% 30.17 in 1.0 mi NNW 5.8 mph - N/A   Mist
1:43 AM 60.1 °F 60.1 °F 100% 30.17 in 0.2 mi NNW 4.6 mph - N/A Fog Fog
1:56 AM 59.0 °F 59.0 °F 100% 30.15 in 0.5 mi NNW 3.5 mph - N/A Fog Fog
2:08 AM 59.0 °F 59.0 °F 100% 30.17 in 0.2 mi Calm Calm - N/A Fog Fog
2:56 AM 59.0 °F 59.0 °F 100% 30.16 in 0.2 mi Calm Calm - N/A Fog Fog
3:56 AM 57.9 °F 57.9 °F 100% 30.16 in 0.2 mi Calm Calm - N/A Fog Fog
4:56 AM 54.0 °F 54.0 °F 100% 30.17 in 0.2 mi WNW 4.6 mph - N/A Fog Fog
5:16 AM 54.0 °F 54.0 °F 100% 30.18 in 0.2 mi West 3.5 mph - N/A Fog Fog
5:31 AM 54.0 °F 54.0 °F 100% 30.18 in 1.0 mi Calm Calm - N/A   Mist
5:36 AM 55.0 °F 55.0 °F 100% 30.18 in 3.0 mi Calm Calm - N/A   Mist
5:41 AM 55.0 °F 55.0 °F 100% 30.18 in 1.5 mi Calm Calm - N/A   Mostly Cloudy
5:45 AM 55.0 °F 55.0 °F 100% 30.19 in 0.2 mi Calm Calm - N/A Fog Fog
5:56 AM 55.9 °F 55.9 °F 100% 30.17 in 0.2 mi Calm Calm - N/A Fog Fog
6:56 AM 57.0 °F 57.0 °F 100% 30.17 in 0.2 mi Calm Calm - N/A Fog Fog
7:56 AM 57.9 °F 57.9 °F 100% 30.19 in 0.2 mi Calm Calm - N/A Fog Fog
8:21 AM 59.0 °F 59.0 °F 100% 30.21 in 1.0 mi Calm Calm - N/A   Mist
8:34 AM 60.1 °F 60.1 °F 100% 30.21 in 0.8 mi Calm Calm - N/A   Mist
8:40 AM 60.1 °F 59.0 °F 96% 30.21 in 2.5 mi Calm Calm - N/A   Mostly Cloudy
8:43 AM 60.1 °F 59.0 °F 96% 30.21 in 8.0 mi Calm Calm - N/A   Scattered Clouds
8:48 AM 60.1 °F 60.1 °F 100% 30.21 in 0.8 mi Calm Calm - N/A   Mist
8:56 AM 60.1 °F 60.1 °F 100% 30.20 in 0.2 mi Calm Calm - N/A Fog Fog
9:06 AM 61.0 °F 61.0 °F 100% 30.21 in 1.0 mi Calm Calm - N/A   Mist
9:08 AM 61.0 °F 61.0 °F 100% 30.21 in 4.0 mi Calm Calm - N/A   Scattered Clouds
9:56 AM 66.9 °F 57.9 °F 73% 30.20 in 10.0 mi North 3.5 mph - N/A   Clear
10:56 AM 71.1 °F 55.9 °F 59% 30.21 in 10.0 mi NNE 6.9 mph - N/A   Clear
11:56 AM 73.0 °F 57.0 °F 57% 30.22 in 10.0 mi Variable 3.5 mph - N/A   Partly Cloudy
12:56 PM 73.9 °F 55.9 °F 53% 30.22 in 10.0 mi North 6.9 mph - N/A   Mostly Cloudy
1:56 PM 75.0 °F 55.0 °F 50% 30.20 in 10.0 mi WNW 8.1 mph - N/A   Clear
2:56 PM 75.9 °F 55.0 °F 48% 30.19 in 10.0 mi North 9.2 mph - N/A   Partly Cloudy
3:56 PM 75.9 °F 54.0 °F 46% 30.17 in 10.0 mi NE 9.2 mph - N/A   Clear
4:56 PM 75.9 °F 52.0 °F 43% 30.17 in 10.0 mi Variable 5.8 mph - N/A   Clear
5:56 PM 75.0 °F 52.0 °F 44% 30.16 in 10.0 mi North 4.6 mph - N/A   Clear
6:56 PM 73.9 °F 54.0 °F 50% 30.15 in 10.0 mi NNW 3.5 mph - N/A   Clear
7:56 PM 71.1 °F 55.0 °F 57% 30.16 in 10.0 mi Calm Calm - N/A   Clear
8:56 PM 66.9 °F 55.0 °F 66% 30.17 in 10.0 mi East 3.5 mph - N/A   Clear
9:56 PM 62.1 °F 55.9 °F 80% 30.19 in 10.0 mi ENE 5.8 mph - N/A   Clear
10:56 PM 62.1 °F 57.0 °F 84% 30.20 in 10.0 mi ESE 4.6 mph - N/A   Clear
11:56 PM 61.0 °F 57.0 °F 87% 30.20 in 10.0 mi Calm Calm - N/A   Clear